| time (UTC) | temp C | wind direction | speed KPH | gust KPH | rain 1hr cm | rain 24hr cm | rain mn cm | humidity % | barometer mb |
| 20260508014013 | 8 | 0 | 0.0 | 11.3 | 0.00 | 0.05 | 0.00 | 75 | 1010.4 |
| 20260508013511 | 8 | 0 | 0.0 | 12.9 | 0.00 | 0.05 | 0.00 | 78 | 1010.4 |
| 20260508013027 | 8 | 163 | 0.0 | 12.9 | 0.00 | 0.05 | 0.00 | 75 | 1010.4 |
| 20260508012515 | 8 | 0 | 0.0 | 11.3 | 0.00 | 0.05 | 0.00 | 75 | 1010.4 |
| 20260508012013 | 8 | 0 | 0.0 | 11.3 | 0.00 | 0.05 | 0.00 | 75 | 1010.4 |
| 20260508011536 | 8 | 0 | 0.0 | 11.3 | 0.00 | 0.05 | 0.00 | 75 | 1010.3 |
| 20260508011015 | 8 | 0 | 0.0 | 11.3 | 0.00 | 0.05 | 0.00 | 75 | 1010.2 |
| 20260508010510 | 8 | 0 | 0.0 | 11.3 | 0.00 | 0.05 | 0.00 | 75 | 1010.2 |
| 20260508010037 | 8 | 0 | 1.6 | 11.3 | 0.00 | 0.05 | 0.00 | 75 | 1010.3 |
| 20260508005510 | 8 | 0 | 0.0 | 9.7 | 0.00 | 0.05 | 0.00 | 75 | 1010.4 |
| 20260508005012 | 8 | 0 | 0.0 | 9.7 | 0.00 | 0.05 | 0.00 | 74 | 1010.4 |
| 20260508004537 | 8 | 0 | 0.0 | 11.3 | 0.00 | 0.05 | 0.00 | 75 | 1010.5 |
| 20260508004010 | 8 | 0 | 0.0 | 11.3 | 0.00 | 0.05 | 0.00 | 75 | 1010.5 |
| 20260508003513 | 8 | 0 | 0.0 | 8.0 | 0.00 | 0.05 | 0.00 | 74 | 1010.4 |
| 20260508003027 | 8 | 0 | 0.0 | 11.3 | 0.00 | 0.05 | 0.00 | 74 | 1010.3 |
| 20260508002510 | 8 | 167 | 0.0 | 11.3 | 0.00 | 0.05 | 0.00 | 74 | 1010.4 |
| 20260508002014 | 8 | 0 | 0.0 | 16.1 | 0.00 | 0.05 | 0.00 | 74 | 1010.4 |
| 20260508001530 | 8 | 0 | 0.0 | 16.1 | 0.00 | 0.05 | 0.00 | 74 | 1010.2 |
| 20260508001011 | 8 | 0 | 0.0 | 16.1 | 0.00 | 0.05 | 0.00 | 75 | 1010.1 |
| 20260508000519 | 8 | 149 | 1.6 | 14.5 | 0.00 | 0.05 | 0.00 | 75 | 1010.3 |
| 20260508000030 | 8 | 0 | 0.0 | 14.5 | 0.00 | 0.05 | 0.00 | 75 | 1010.2 |
| 20260507235511 | 8 | 0 | 0.0 | 11.3 | 0.00 | 0.05 | 0.00 | 75 | 1010.3 |
| 20260507235012 | 8 | 0 | 0.0 | 1.6 | 0.00 | 0.05 | 0.00 | 75 | 1010.3 |
| 20260507234538 | 8 | 0 | 0.0 | 1.6 | 0.00 | 0.05 | 0.00 | 75 | 1010.3 |
| 20260507234011 | 8 | 0 | 0.0 | 11.3 | 0.00 | 0.05 | 0.00 | 76 | 1010.3 |
| 20260507233512 | 8 | 0 | 0.0 | 11.3 | 0.00 | 0.05 | 0.00 | 76 | 1010.4 |
| 20260507233033 | 8 | 0 | 0.0 | 11.3 | 0.00 | 0.05 | 0.00 | 76 | 1010.4 |
| 20260507232515 | 8 | 0 | 0.0 | 11.3 | 0.00 | 0.05 | 0.00 | 76 | 1010.4 |
| 20260507232013 | 8 | 0 | 0.0 | 6.4 | 0.00 | 0.05 | 0.00 | 76 | 1010.4 |
| 20260507231534 | 8 | 0 | 0.0 | 1.6 | 0.00 | 0.05 | 0.00 | 76 | 1010.5 |
| 20260507231011 | 8 | 0 | 0.0 | 9.7 | 0.00 | 0.05 | 0.00 | 75 | 1010.6 |
| 20260507230512 | 8 | 0 | 0.0 | 12.9 | 0.00 | 0.05 | 0.00 | 75 | 1010.4 |
| 20260507230029 | 8 | 0 | 1.6 | 12.9 | 0.00 | 0.05 | 0.00 | 75 | 1010.5 |
| 20260507225511 | 7 | 0 | 0.0 | 8.0 | 0.00 | 0.05 | 0.05 | 76 | 1010.5 |
| 20260507225012 | 7 | 0 | 0.0 | 4.8 | 0.00 | 0.05 | 0.05 | 76 | 1010.5 |
| 20260507224529 | 7 | 0 | 0.0 | 4.8 | 0.00 | 0.05 | 0.05 | 75 | 1010.6 |
| 20260507224009 | 7 | 0 | 0.0 | 6.4 | 0.00 | 0.05 | 0.05 | 75 | 1010.5 |
| 20260507223518 | 7 | 0 | 0.0 | 9.7 | 0.00 | 0.05 | 0.05 | 76 | 1010.5 |
| 20260507223028 | 7 | 0 | 0.0 | 11.3 | 0.00 | 0.05 | 0.05 | 76 | 1010.6 |
| 20260507222521 | 7 | 0 | 0.0 | 11.3 | 0.00 | 0.05 | 0.05 | 78 | 1010.6 |
| 20260507222014 | 6 | 159 | 0.0 | 14.5 | 0.00 | 0.05 | 0.05 | 80 | 1010.5 |
| 20260507221531 | 5 | 0 | 1.6 | 14.5 | 0.00 | 0.05 | 0.05 | 82 | 1010.6 |
| 20260507221016 | 5 | 0 | 0.0 | 0.0 | 0.00 | 0.05 | 0.05 | 82 | 1010.5 |
| 20260507220519 | 5 | 0 | 0.0 | 0.0 | 0.00 | 0.05 | 0.05 | 81 | 1010.7 |
| 20260507220028 | 5 | 0 | 0.0 | 0.0 | 0.00 | 0.05 | 0.05 | 78 | 1010.8 |
| 20260507215514 | 5 | 0 | 0.0 | 0.0 | 0.00 | 0.05 | 0.05 | 78 | 1010.8 |
| 20260507215016 | 6 | 0 | 0.0 | 0.0 | 0.00 | 0.05 | 0.05 | 78 | 1010.5 |
| 20260507214530 | 6 | 0 | 0.0 | 0.0 | 0.00 | 0.05 | 0.05 | 78 | 1010.5 |
| 20260507214014 | 6 | 0 | 0.0 | 0.0 | 0.00 | 0.05 | 0.05 | 78 | 1010.7 |
| 20260507213512 | 6 | 0 | 0.0 | 9.7 | 0.00 | 0.05 | 0.05 | 79 | 1010.8 |
| 20260507213027 | 6 | 0 | 0.0 | 9.7 | 0.00 | 0.05 | 0.05 | 81 | 1010.7 |
| 20260507212511 | 6 | 0 | 0.0 | 1.6 | 0.00 | 0.05 | 0.05 | 82 | 1010.7 |
| 20260507212017 | 6 | 0 | 0.0 | 0.0 | 0.00 | 0.05 | 0.05 | 79 | 1010.7 |
| 20260507211541 | 6 | 0 | 0.0 | 0.0 | 0.00 | 0.05 | 0.05 | 77 | 1010.7 |
| 20260507211014 | 6 | 0 | 0.0 | 0.0 | 0.00 | 0.05 | 0.05 | 76 | 1010.8 |
| 20260507210511 | 7 | 0 | 0.0 | 0.0 | 0.00 | 0.05 | 0.05 | 76 | 1010.8 |
| 20260507210033 | 7 | 0 | 0.0 | 0.0 | 0.00 | 0.05 | 0.05 | 76 | 1010.8 |
| 20260507205513 | 7 | 0 | 0.0 | 0.0 | 0.00 | 0.05 | 0.05 | 76 | 1010.8 |
| 20260507205012 | 7 | 0 | 0.0 | 0.0 | 0.00 | 0.05 | 0.05 | 76 | 1010.8 |
| 20260507204530 | 8 | 0 | 0.0 | 0.0 | 0.00 | 0.05 | 0.05 | 76 | 1010.7 |
| 20260507204010 | 8 | 0 | 0.0 | 0.0 | 0.00 | 0.05 | 0.05 | 76 | 1010.5 |
| 20260507203511 | 8 | 0 | 0.0 | 4.8 | 0.00 | 0.05 | 0.05 | 76 | 1010.4 |
| 20260507203029 | 8 | 0 | 0.0 | 11.3 | 0.00 | 0.05 | 0.05 | 76 | 1010.2 |
| 20260507202511 | 8 | 0 | 0.0 | 11.3 | 0.00 | 0.05 | 0.05 | 75 | 1010.0 |
| 20260507202017 | 8 | 142 | 0.0 | 12.9 | 0.00 | 0.05 | 0.05 | 74 | 1010.0 |
| 20260507201530 | 8 | 0 | 1.6 | 12.9 | 0.00 | 0.05 | 0.05 | 74 | 1010.1 |
| 20260507201007 | 8 | 0 | 0.0 | 6.4 | 0.00 | 0.05 | 0.05 | 74 | 1010.0 |
| 20260507200509 | 9 | 0 | 0.0 | 6.4 | 0.00 | 0.05 | 0.05 | 73 | 1010.0 |
| 20260507200026 | 9 | 0 | 0.0 | 3.2 | 0.00 | 0.05 | 0.05 | 73 | 1009.9 |
| 20260507195507 | 9 | 0 | 0.0 | 3.2 | 0.00 | 0.05 | 0.05 | 73 | 1010.0 |
| 20260507195008 | 10 | 0 | 0.0 | 0.0 | 0.00 | 0.05 | 0.05 | 73 | 1010.0 |
| 20260507194530 | 10 | 0 | 0.0 | 0.0 | 0.00 | 0.05 | 0.05 | 72 | 1010.1 |
| 20260507194007 | 10 | 0 | 0.0 | 8.0 | 0.00 | 0.05 | 0.05 | 71 | 1010.0 |
| 20260507193507 | 10 | 0 | 0.0 | 8.0 | 0.00 | 0.05 | 0.05 | 71 | 1010.0 |
| 20260507193028 | 10 | 0 | 0.0 | 8.0 | 0.00 | 0.05 | 0.05 | 70 | 1010.1 |
| 20260507192510 | 10 | 0 | 0.0 | 8.0 | 0.00 | 0.05 | 0.05 | 71 | 1010.2 |
| 20260507192010 | 10 | 0 | 0.0 | 8.0 | 0.00 | 0.05 | 0.05 | 71 | 1010.1 |
| 20260507191530 | 10 | 0 | 0.0 | 8.0 | 0.00 | 0.05 | 0.05 | 71 | 1010.0 |
| 20260507191008 | 10 | 0 | 0.0 | 11.3 | 0.00 | 0.05 | 0.05 | 70 | 1010.2 |
| 20260507190515 | 10 | 0 | 0.0 | 11.3 | 0.00 | 0.05 | 0.05 | 70 | 1010.1 |
| 20260507190028 | 10 | 152 | 0.0 | 14.5 | 0.00 | 0.05 | 0.05 | 71 | 1010.2 |
| 20260507185509 | 10 | 0 | 0.0 | 14.5 | 0.00 | 0.05 | 0.05 | 71 | 1010.2 |
| 20260507185011 | 10 | 0 | 0.0 | 11.3 | 0.00 | 0.05 | 0.05 | 71 | 1010.1 |
| 20260507184526 | 10 | 0 | 0.0 | 11.3 | 0.00 | 0.05 | 0.05 | 71 | 1010.1 |
| 20260507184007 | 10 | 0 | 0.0 | 11.3 | 0.00 | 0.05 | 0.05 | 71 | 1010.2 |
| 20260507183513 | 10 | 0 | 0.0 | 9.7 | 0.00 | 0.05 | 0.05 | 71 | 1010.1 |
| 20260507183027 | 10 | 162 | 0.0 | 16.1 | 0.00 | 0.05 | 0.05 | 70 | 1010.2 |
| 20260507182507 | 10 | 0 | 0.0 | 16.1 | 0.00 | 0.05 | 0.05 | 70 | 1010.1 |
| 20260507182011 | 10 | 163 | 1.6 | 14.5 | 0.00 | 0.05 | 0.05 | 70 | 1010.0 |
| 20260507181528 | 10 | 159 | 3.2 | 14.5 | 0.00 | 0.05 | 0.05 | 71 | 1010.0 |
| 20260507181014 | 10 | 0 | 0.0 | 16.1 | 0.00 | 0.05 | 0.05 | 72 | 1009.9 |
| 20260507180510 | 10 | 171 | 4.8 | 16.1 | 0.00 | 0.05 | 0.05 | 72 | 1009.9 |
| 20260507180029 | 10 | 0 | 0.0 | 16.1 | 0.00 | 0.05 | 0.05 | 73 | 1009.9 |
| 20260507175519 | 10 | 0 | 1.6 | 16.1 | 0.00 | 0.05 | 0.05 | 73 | 1010.0 |
| 20260507175009 | 10 | 0 | 1.6 | 11.3 | 0.00 | 0.05 | 0.05 | 72 | 1010.0 |
| 20260507174544 | 10 | 0 | 1.6 | 17.7 | 0.00 | 0.05 | 0.05 | 72 | 1010.0 |
| 20260507174017 | 10 | 0 | 1.6 | 19.3 | 0.00 | 0.05 | 0.05 | 71 | 1010.0 |
| 20260507173514 | 10 | 150 | 3.2 | 19.3 | 0.00 | 0.05 | 0.05 | 71 | 1010.0 |
| 20260507173029 | 10 | 155 | 3.2 | 14.5 | 0.00 | 0.05 | 0.05 | 73 | 1010.0 |
| 20260507172510 | 10 | 165 | 0.0 | 14.5 | 0.00 | 0.05 | 0.05 | 73 | 1009.9 |
| 20260507172019 | 10 | 0 | 1.6 | 14.5 | 0.00 | 0.05 | 0.05 | 72 | 1009.9 |
| 20260507171541 | 10 | 159 | 1.6 | 14.5 | 0.00 | 0.05 | 0.05 | 72 | 1009.9 |
| 20260507171011 | 10 | 0 | 1.6 | 14.5 | 0.00 | 0.05 | 0.05 | 72 | 1010.0 |
| 20260507170509 | 10 | 156 | 1.6 | 17.7 | 0.00 | 0.05 | 0.05 | 72 | 1009.9 |
| 20260507170028 | 10 | 0 | 4.8 | 17.7 | 0.00 | 0.05 | 0.05 | 72 | 1010.1 |
| 20260507165511 | 10 | 155 | 0.0 | 12.9 | 0.00 | 0.05 | 0.05 | 72 | 1010.1 |
| 20260507165010 | 10 | 0 | 1.6 | 12.9 | 0.00 | 0.05 | 0.05 | 71 | 1010.1 |
| 20260507164528 | 10 | 159 | 1.6 | 14.5 | 0.00 | 0.05 | 0.05 | 72 | 1010.1 |
| 20260507164011 | 10 | 219 | 1.6 | 14.5 | 0.00 | 0.05 | 0.05 | 72 | 1010.2 |
| 20260507163512 | 10 | 154 | 0.0 | 8.0 | 0.00 | 0.05 | 0.05 | 76 | 1010.2 |
| 20260507163027 | 10 | 168 | 0.0 | 14.5 | 0.00 | 0.05 | 0.05 | 76 | 1010.3 |
| 20260507162508 | 10 | 0 | 1.6 | 14.5 | 0.03 | 0.05 | 0.05 | 75 | 1010.2 |
| 20260507162010 | 10 | 0 | 1.6 | 16.1 | 0.03 | 0.05 | 0.05 | 76 | 1010.2 |
| 20260507161527 | 10 | 0 | 1.6 | 16.1 | 0.03 | 0.05 | 0.05 | 77 | 1010.3 |
| 20260507161012 | 10 | 0 | 1.6 | 12.9 | 0.03 | 0.05 | 0.05 | 78 | 1010.2 |
| 20260507160512 | 9 | 0 | 0.0 | 12.9 | 0.03 | 0.05 | 0.05 | 79 | 1010.3 |
| 20260507160031 | 9 | 0 | 0.0 | 12.9 | 0.03 | 0.05 | 0.05 | 80 | 1010.3 |
| 20260507155511 | 9 | 147 | 0.0 | 12.9 | 0.05 | 0.05 | 0.05 | 80 | 1010.3 |
| 20260507155010 | 8 | 0 | 0.0 | 12.9 | 0.05 | 0.05 | 0.05 | 80 | 1010.4 |
| 20260507154527 | 8 | 0 | 0.0 | 6.4 | 0.05 | 0.05 | 0.05 | 80 | 1010.4 |
| 20260507154011 | 8 | 171 | 0.0 | 6.4 | 0.05 | 0.05 | 0.05 | 80 | 1010.6 |
| 20260507153511 | 8 | 0 | 0.0 | 6.4 | 0.05 | 0.05 | 0.05 | 79 | 1010.6 |
| 20260507153029 | 9 | 0 | 0.0 | 6.4 | 0.03 | 0.03 | 0.03 | 79 | 1010.8 |
| 20260507152512 | 9 | 0 | 0.0 | 0.0 | 0.03 | 0.03 | 0.03 | 81 | 1010.8 |
| 20260507152008 | 9 | 0 | 0.0 | 0.0 | 0.03 | 0.03 | 0.03 | 81 | 1010.6 |
| 20260507151527 | 9 | 0 | 0.0 | 8.0 | 0.03 | 0.03 | 0.03 | 82 | 1010.7 |
| 20260507151007 | 9 | 0 | 0.0 | 8.0 | 0.03 | 0.03 | 0.03 | 81 | 1010.7 |
| 20260507150509 | 9 | 289 | 0.0 | 6.4 | 0.03 | 0.03 | 0.03 | 79 | 1010.8 |
| 20260507150036 | 9 | 0 | 0.0 | 9.7 | 0.03 | 0.03 | 0.03 | 78 | 1010.6 |
| 20260507145507 | 9 | 0 | 1.6 | 11.3 | 0.00 | 0.00 | 0.00 | 76 | 1010.6 |
| 20260507145016 | 9 | 0 | 0.0 | 11.3 | 0.00 | 0.00 | 0.00 | 75 | 1010.7 |
| 20260507144528 | 9 | 0 | 0.0 | 6.4 | 0.00 | 0.00 | 0.00 | 75 | 1010.7 |
| 20260507144010 | 10 | 0 | 0.0 | 16.1 | 0.00 | 0.00 | 0.00 | 74 | 1010.6 |
| 20260507143508 | 10 | 0 | 0.0 | 16.1 | 0.00 | 0.00 | 0.00 | 73 | 1010.7 |
| 20260507143028 | 10 | 144 | 3.2 | 16.1 | 0.00 | 0.00 | 0.00 | 72 | 1010.7 |
| 20260507142509 | 10 | 0 | 3.2 | 14.5 | 0.00 | 0.00 | 0.00 | 71 | 1010.7 |
| 20260507142011 | 10 | 124 | 3.2 | 14.5 | 0.00 | 0.00 | 0.00 | 71 | 1010.6 |
| 20260507141528 | 10 | 0 | 0.0 | 14.5 | 0.00 | 0.00 | 0.00 | 71 | 1010.8 |
| 20260507141015 | 10 | 126 | 1.6 | 16.1 | 0.00 | 0.00 | 0.00 | 70 | 1010.8 |
| 20260507140510 | 10 | 0 | 0.0 | 16.1 | 0.00 | 0.00 | 0.00 | 70 | 1010.8 |
| 20260507140037 | 10 | 143 | 6.4 | 16.1 | 0.00 | 0.00 | 0.00 | 70 | 1010.9 |
| 20260507135508 | 10 | 0 | 3.2 | 16.1 | 0.00 | 0.00 | 0.00 | 71 | 1010.8 |
| 20260507135014 | 10 | 0 | 3.2 | 12.9 | 0.00 | 0.00 | 0.00 | 72 | 1010.9 |
| 20260507134530 | 9 | 126 | 1.6 | 12.9 | 0.00 | 0.00 | 0.00 | 72 | 1011.0 |
| 20260507134007 | 9 | 0 | 0.0 | 9.7 | 0.00 | 0.00 | 0.00 | 72 | 1011.1 |
| 20260507133510 | 9 | 0 | 0.0 | 12.9 | 0.00 | 0.00 | 0.00 | 73 | 1011.1 |
| 20260507133033 | 9 | 0 | 0.0 | 12.9 | 0.00 | 0.00 | 0.00 | 72 | 1011.2 |
| 20260507132510 | 9 | 163 | 3.2 | 12.9 | 0.00 | 0.00 | 0.00 | 72 | 1011.2 |
| 20260507132009 | 9 | 186 | 0.0 | 12.9 | 0.00 | 0.00 | 0.00 | 71 | 1011.2 |
| 20260507131558 | 9 | 0 | 1.6 | 12.9 | 0.00 | 0.00 | 0.00 | 71 | 1011.3 |
| 20260507131011 | 9 | 0 | 0.0 | 12.9 | 0.00 | 0.00 | 0.00 | 71 | 1011.2 |
| 20260507130514 | 9 | 159 | 3.2 | 12.9 | 0.00 | 0.00 | 0.00 | 70 | 1011.3 |
| 20260507130029 | 9 | 163 | 0.0 | 12.9 | 0.00 | 0.00 | 0.00 | 70 | 1011.3 |
| 20260507125512 | 10 | 0 | 1.6 | 12.9 | 0.00 | 0.00 | 0.00 | 70 | 1011.3 |
| 20260507125011 | 10 | 170 | 0.0 | 12.9 | 0.00 | 0.00 | 0.00 | 70 | 1011.2 |
| 20260507124530 | 10 | 0 | 1.6 | 17.7 | 0.00 | 0.00 | 0.00 | 69 | 1011.3 |
| 20260507124010 | 10 | 0 | 6.4 | 17.7 | 0.00 | 0.00 | 0.00 | 69 | 1011.2 |
| 20260507123510 | 10 | 179 | 6.4 | 14.5 | 0.00 | 0.00 | 0.00 | 68 | 1011.1 |
| 20260507123030 | 10 | 0 | 1.6 | 16.1 | 0.00 | 0.00 | 0.00 | 67 | 1011.2 |
| 20260507122513 | 10 | 113 | 4.8 | 16.1 | 0.00 | 0.00 | 0.00 | 67 | 1011.1 |
| 20260507122013 | 10 | 0 | 3.2 | 16.1 | 0.00 | 0.00 | 0.00 | 67 | 1011.1 |
| 20260507121528 | 10 | 0 | 4.8 | 14.5 | 0.00 | 0.00 | 0.00 | 66 | 1011.1 |
| 20260507121011 | 10 | 0 | 3.2 | 19.3 | 0.00 | 0.00 | 0.00 | 66 | 1011.1 |
| 20260507120510 | 11 | 121 | 3.2 | 22.5 | 0.00 | 0.00 | 0.00 | 65 | 1011.1 |
| 20260507120033 | 11 | 166 | 4.8 | 22.5 | 0.00 | 0.00 | 0.00 | 65 | 1011.1 |
| 20260507115512 | 11 | 163 | 1.6 | 12.9 | 0.00 | 0.00 | 0.00 | 66 | 1011.0 |
| 20260507115013 | 10 | 0 | 0.0 | 17.7 | 0.00 | 0.00 | 0.00 | 66 | 1011.1 |
| 20260507114527 | 10 | 0 | 3.2 | 19.3 | 0.00 | 0.00 | 0.00 | 65 | 1011.0 |
| 20260507114013 | 10 | 146 | 3.2 | 19.3 | 0.00 | 0.00 | 0.00 | 65 | 1011.0 |
| 20260507113548 | 10 | 0 | 0.0 | 16.1 | 0.00 | 0.00 | 0.00 | 66 | 1011.1 |
| 20260507113058 | 10 | 0 | 3.2 | 16.1 | 0.00 | 0.00 | 0.00 | 65 | 1011.2 |
| 20260507112516 | 10 | 0 | 0.0 | 17.7 | 0.00 | 0.00 | 0.00 | 65 | 1011.1 |
| 20260507112011 | 10 | 0 | 0.0 | 17.7 | 0.00 | 0.00 | 0.00 | 65 | 1011.2 |
| 20260507111532 | 10 | 0 | 3.2 | 17.7 | 0.00 | 0.00 | 0.00 | 64 | 1011.2 |
| 20260507111007 | 10 | 0 | 1.6 | 12.9 | 0.00 | 0.00 | 0.00 | 65 | 1011.3 |
| 20260507110508 | 10 | 0 | 0.0 | 12.9 | 0.00 | 0.00 | 0.00 | 64 | 1011.2 |
| 20260507110031 | 10 | 0 | 3.2 | 17.7 | 0.00 | 0.00 | 0.00 | 64 | 1011.3 |
| 20260507105511 | 10 | 0 | 3.2 | 17.7 | 0.00 | 0.00 | 0.00 | 64 | 1011.1 |
| 20260507105009 | 10 | 125 | 1.6 | 16.1 | 0.00 | 0.00 | 0.00 | 64 | 1011.1 |
| 20260507104527 | 10 | 0 | 0.0 | 11.3 | 0.00 | 0.00 | 0.00 | 64 | 1011.2 |
| 20260507104011 | 10 | 0 | 0.0 | 14.5 | 0.00 | 0.00 | 0.00 | 65 | 1011.2 |
| 20260507103507 | 10 | 171 | 4.8 | 14.5 | 0.00 | 0.00 | 0.00 | 63 | 1011.2 |
| 20260507103029 | 10 | 0 | 0.0 | 17.7 | 0.00 | 0.00 | 0.00 | 64 | 1011.3 |
| 20260507102509 | 10 | 0 | 0.0 | 19.3 | 0.00 | 0.00 | 0.00 | 65 | 1011.3 |
| 20260507102007 | 10 | 0 | 1.6 | 19.3 | 0.00 | 0.00 | 0.00 | 64 | 1011.4 |
| 20260507101527 | 10 | 164 | 1.6 | 12.9 | 0.00 | 0.00 | 0.00 | 63 | 1011.4 |
| 20260507101012 | 10 | 142 | 0.0 | 12.9 | 0.00 | 0.00 | 0.00 | 65 | 1011.3 |
| 20260507100508 | 10 | 0 | 1.6 | 12.9 | 0.00 | 0.00 | 0.00 | 63 | 1011.4 |
| 20260507100038 | 11 | 0 | 1.6 | 12.9 | 0.00 | 0.00 | 0.00 | 64 | 1011.4 |
| 20260507095511 | 11 | 0 | 1.6 | 12.9 | 0.00 | 0.00 | 0.00 | 64 | 1011.3 |
| 20260507095009 | 10 | 0 | 0.0 | 12.9 | 0.00 | 0.00 | 0.00 | 62 | 1011.3 |
| 20260507094528 | 10 | 0 | 0.0 | 12.9 | 0.00 | 0.00 | 0.00 | 63 | 1011.3 |
| 20260507094008 | 10 | 167 | 0.0 | 3.2 | 0.00 | 0.00 | 0.00 | 63 | 1011.4 |
| 20260507093510 | 10 | 0 | 0.0 | 11.3 | 0.00 | 0.00 | 0.00 | 63 | 1011.5 |
| 20260507093034 | 10 | 0 | 0.0 | 14.5 | 0.00 | 0.00 | 0.00 | 64 | 1011.5 |
| 20260507092512 | 10 | 142 | 1.6 | 14.5 | 0.00 | 0.00 | 0.00 | 63 | 1011.5 |
| 20260507092008 | 10 | 0 | 0.0 | 17.7 | 0.00 | 0.00 | 0.00 | 64 | 1011.7 |
| 20260507091534 | 10 | 0 | 1.6 | 17.7 | 0.00 | 0.00 | 0.00 | 63 | 1011.6 |
| 20260507091010 | 10 | 0 | 0.0 | 14.5 | 0.00 | 0.00 | 0.00 | 65 | 1011.6 |
| 20260507090512 | 10 | 233 | 0.0 | 12.9 | 0.00 | 0.00 | 0.00 | 63 | 1011.5 |
| 20260507090028 | 10 | 0 | 0.0 | 17.7 | 0.00 | 0.00 | 0.00 | 64 | 1011.6 |
| 20260507085511 | 10 | 0 | 1.6 | 17.7 | 0.00 | 0.00 | 0.00 | 65 | 1011.6 |
| 20260507085008 | 10 | 0 | 3.2 | 17.7 | 0.00 | 0.00 | 0.00 | 65 | 1011.7 |
| 20260507084544 | 10 | 169 | 1.6 | 14.5 | 0.00 | 0.00 | 0.00 | 64 | 1011.7 |
| 20260507084015 | 10 | 163 | 0.0 | 14.5 | 0.00 | 0.00 | 0.00 | 66 | 1011.7 |
| 20260507083508 | 10 | 136 | 3.2 | 14.5 | 0.00 | 0.00 | 0.00 | 66 | 1011.7 |
| 20260507083030 | 9 | 135 | 1.6 | 11.3 | 0.00 | 0.00 | 0.00 | 67 | 1011.8 |
| 20260507082511 | 9 | 0 | 1.6 | 12.9 | 0.00 | 0.00 | 0.00 | 68 | 1011.8 |
| 20260507082012 | 9 | 0 | 1.6 | 16.1 | 0.00 | 0.00 | 0.00 | 68 | 1011.8 |
| 20260507081528 | 9 | 0 | 1.6 | 16.1 | 0.00 | 0.00 | 0.00 | 68 | 1011.7 |
| 20260507081017 | 9 | 0 | 3.2 | 16.1 | 0.00 | 0.00 | 0.00 | 69 | 1011.8 |
| 20260507080508 | 9 | 0 | 1.6 | 14.5 | 0.00 | 0.00 | 0.00 | 68 | 1011.7 |
| 20260507080030 | 8 | 168 | 1.6 | 14.5 | 0.00 | 0.00 | 0.00 | 69 | 1011.8 |
| 20260507075508 | 8 | 153 | 3.2 | 14.5 | 0.00 | 0.00 | 0.00 | 70 | 1011.7 |
| 20260507075013 | 8 | 0 | 0.0 | 14.5 | 0.00 | 0.00 | 0.00 | 72 | 1011.7 |
| 20260507074528 | 7 | 0 | 0.0 | 14.5 | 0.00 | 0.00 | 0.00 | 73 | 1011.7 |
| 20260507074008 | 7 | 0 | 1.6 | 16.1 | 0.00 | 0.00 | 0.00 | 72 | 1011.7 |
| 20260507073509 | 7 | 0 | 1.6 | 16.1 | 0.00 | 0.00 | 0.00 | 72 | 1011.6 |
| 20260507073030 | 7 | 166 | 3.2 | 14.5 | 0.00 | 0.00 | 0.00 | 72 | 1011.7 |
| 20260507072512 | 7 | 157 | 4.8 | 16.1 | 0.00 | 0.00 | 0.00 | 72 | 1011.7 |
| 20260507072012 | 7 | 0 | 3.2 | 16.1 | 0.00 | 0.00 | 0.00 | 73 | 1011.6 |
| 20260507071532 | 6 | 163 | 1.6 | 16.1 | 0.00 | 0.00 | 0.00 | 73 | 1011.7 |
| 20260507071010 | 6 | 164 | 1.6 | 16.1 | 0.00 | 0.00 | 0.00 | 74 | 1011.7 |
| 20260507070511 | 6 | 164 | 3.2 | 16.1 | 0.00 | 0.00 | 0.00 | 74 | 1011.7 |
| 20260507070030 | 6 | 0 | 1.6 | 12.9 | 0.00 | 0.00 | 0.00 | 74 | 1011.7 |
| 20260507065511 | 6 | 0 | 0.0 | 12.9 | 0.00 | 0.00 | 0.00 | 74 | 1011.7 |
| 20260507065011 | 6 | 0 | 1.6 | 12.9 | 0.00 | 0.00 | 0.00 | 74 | 1011.8 |
| 20260507064533 | 6 | 202 | 0.0 | 12.9 | 0.00 | 0.00 | 0.00 | 75 | 1011.9 |
| 20260507064010 | 6 | 158 | 0.0 | 8.0 | 0.00 | 0.00 | 0.00 | 75 | 1011.9 |
| 20260507063513 | 6 | 165 | 0.0 | 12.9 | 0.00 | 0.00 | 0.00 | 75 | 1011.9 |
| 20260507063028 | 6 | 0 | 0.0 | 12.9 | 0.00 | 0.00 | 0.00 | 75 | 1011.9 |
| 20260507062510 | 6 | 0 | 0.0 | 9.7 | 0.00 | 0.00 | 0.00 | 75 | 1011.9 |
| 20260507062010 | 6 | 0 | 0.0 | 6.4 | 0.00 | 0.00 | 0.00 | 76 | 1011.9 |
| 20260507061535 | 6 | 0 | 0.0 | 6.4 | 0.00 | 0.00 | 0.00 | 76 | 1011.7 |
| 20260507061013 | 6 | 175 | 0.0 | 11.3 | 0.00 | 0.00 | 0.00 | 76 | 1011.9 |
| 20260507060510 | 6 | 0 | 0.0 | 12.9 | 0.00 | 0.00 | 0.00 | 76 | 1011.7 |
| 20260507060036 | 5 | 0 | 0.0 | 12.9 | 0.00 | 0.00 | 0.00 | 76 | 1012.0 |
| 20260507055510 | 5 | 0 | 0.0 | 11.3 | 0.00 | 0.00 | 0.00 | 77 | 1012.0 |
| 20260507055016 | 5 | 0 | 0.0 | 11.3 | 0.00 | 0.00 | 0.00 | 77 | 1012.0 |
| 20260507054538 | 5 | 0 | 0.0 | 11.3 | 0.00 | 0.00 | 0.00 | 77 | 1012.0 |
| 20260507054010 | 5 | 0 | 0.0 | 11.3 | 0.00 | 0.00 | 0.00 | 78 | 1011.9 |
| 20260507053517 | 5 | 0 | 0.0 | 9.7 | 0.00 | 0.00 | 0.00 | 79 | 1011.9 |
| 20260507053031 | 5 | 0 | 0.0 | 9.7 | 0.00 | 0.00 | 0.00 | 79 | 1011.9 |
| 20260507052511 | 5 | 0 | 1.6 | 9.7 | 0.00 | 0.00 | 0.00 | 84 | 1012.1 |
| 20260507052011 | 4 | 0 | 0.0 | 8.0 | 0.00 | 0.00 | 0.00 | 80 | 1012.0 |
| 20260507051530 | 4 | 0 | 0.0 | 0.0 | 0.00 | 0.00 | 0.00 | 80 | 1012.1 |
| 20260507051016 | 4 | 0 | 0.0 | 0.0 | 0.00 | 0.00 | 0.00 | 81 | 1012.2 |
| 20260507050511 | 4 | 0 | 0.0 | 6.4 | 0.00 | 0.00 | 0.00 | 81 | 1012.2 |
| 20260507050049 | 3 | 0 | 0.0 | 6.4 | 0.00 | 0.00 | 0.00 | 82 | 1012.2 |
| 20260507045511 | 3 | 0 | 0.0 | 6.4 | 0.00 | 0.00 | 0.00 | 82 | 1012.3 |
| 20260507045011 | 3 | 0 | 0.0 | 0.0 | 0.00 | 0.00 | 0.00 | 82 | 1012.2 |
| 20260507044528 | 3 | 0 | 0.0 | 0.0 | 0.00 | 0.00 | 0.00 | 81 | 1012.2 |
| 20260507044010 | 3 | 0 | 0.0 | 0.0 | 0.00 | 0.00 | 0.00 | 81 | 1012.3 |
| 20260507043509 | 3 | 0 | 0.0 | 0.0 | 0.00 | 0.00 | 0.00 | 81 | 1012.3 |
| 20260507043028 | 3 | 0 | 0.0 | 0.0 | 0.00 | 0.00 | 0.00 | 81 | 1012.3 |
| 20260507042511 | 3 | 0 | 0.0 | 0.0 | 0.00 | 0.00 | 0.00 | 81 | 1012.3 |
| 20260507042010 | 3 | 0 | 0.0 | 4.8 | 0.00 | 0.00 | 0.00 | 81 | 1012.3 |
| 20260507041527 | 3 | 0 | 0.0 | 4.8 | 0.00 | 0.00 | 0.00 | 81 | 1012.3 |
| 20260507041010 | 3 | 0 | 0.0 | 0.0 | 0.00 | 0.00 | 0.00 | 81 | 1012.4 |
| 20260507040510 | 3 | 0 | 0.0 | 0.0 | 0.00 | 0.00 | 0.00 | 80 | 1012.3 |
| 20260507040028 | 3 | 0 | 0.0 | 0.0 | 0.00 | 0.00 | 0.00 | 80 | 1012.2 |
| 20260507035508 | 3 | 0 | 0.0 | 0.0 | 0.00 | 0.00 | 0.00 | 80 | 1012.3 |
| 20260507035008 | 3 | 0 | 0.0 | 0.0 | 0.00 | 0.00 | 0.00 | 80 | 1012.3 |
| 20260507034535 | 3 | 0 | 0.0 | 0.0 | 0.00 | 0.00 | 0.00 | 80 | 1012.5 |
| 20260507034018 | 3 | 0 | 0.0 | 4.8 | 0.00 | 0.00 | 0.00 | 80 | 1012.4 |
| 20260507033511 | 3 | 0 | 0.0 | 6.4 | 0.00 | 0.00 | 0.00 | 80 | 1012.5 |
| 20260507033038 | 3 | 0 | 0.0 | 6.4 | 0.00 | 0.00 | 0.00 | 80 | 1012.6 |
| 20260507032507 | 3 | 0 | 0.0 | 0.0 | 0.00 | 0.00 | 0.00 | 79 | 1012.6 |
| 20260507032010 | 3 | 0 | 0.0 | 0.0 | 0.00 | 0.00 | 0.00 | 79 | 1012.6 |
| 20260507031533 | 4 | 0 | 0.0 | 0.0 | 0.00 | 0.00 | 0.00 | 78 | 1012.7 |
| 20260507031011 | 4 | 0 | 0.0 | 0.0 | 0.00 | 0.00 | 0.00 | 78 | 1012.8 |
| 20260507030511 | 4 | 0 | 0.0 | 0.0 | 0.00 | 0.00 | 0.00 | 78 | 1012.7 |
| 20260507030035 | 4 | 0 | 0.0 | 0.0 | 0.00 | 0.00 | 0.00 | 78 | 1012.8 |
| 20260507025510 | 4 | 0 | 0.0 | 0.0 | 0.00 | 0.00 | 0.00 | 78 | 1012.8 |
| 20260507025017 | 4 | 0 | 0.0 | 6.4 | 0.00 | 0.00 | 0.00 | 78 | 1012.8 |
| 20260507024535 | 4 | 0 | 0.0 | 9.7 | 0.00 | 0.00 | 0.00 | 78 | 1012.7 |
| 20260507024012 | 4 | 0 | 0.0 | 9.7 | 0.00 | 0.00 | 0.00 | 79 | 1012.8 |
| 20260507023509 | 3 | 0 | 0.0 | 9.7 | 0.00 | 0.00 | 0.00 | 80 | 1012.9 |
| 20260507023026 | 3 | 0 | 0.0 | 0.0 | 0.00 | 0.00 | 0.00 | 80 | 1012.9 |
| 20260507022510 | 3 | 0 | 0.0 | 0.0 | 0.00 | 0.00 | 0.00 | 80 | 1012.9 |
| 20260507022010 | 3 | 0 | 0.0 | 0.0 | 0.00 | 0.00 | 0.00 | 78 | 1013.0 |
| 20260507021544 | 3 | 0 | 0.0 | 0.0 | 0.00 | 0.00 | 0.00 | 77 | 1013.0 |
| 20260507021011 | 3 | 0 | 0.0 | 0.0 | 0.00 | 0.00 | 0.00 | 77 | 1013.0 |
| 20260507020509 | 3 | 0 | 0.0 | 0.0 | 0.00 | 0.00 | 0.00 | 76 | 1012.9 |
| 20260507020028 | 3 | 0 | 0.0 | 0.0 | 0.00 | 0.00 | 0.00 | 76 | 1013.0 |
| 20260507015507 | 3 | 0 | 0.0 | 0.0 | 0.00 | 0.00 | 0.00 | 76 | 1013.0 |
| 20260507015008 | 4 | 0 | 0.0 | 0.0 | 0.00 | 0.00 | 0.00 | 76 | 1012.9 |
| 20260507014527 | 4 | 0 | 0.0 | 0.0 | 0.00 | 0.00 | 0.00 | 76 | 1012.8 |